TimeEDT,TemperatureF,Dew PointF,Humidity,Sea Level PressureIn,VisibilityMPH,Wind Direction,Wind SpeedMPH,Gust SpeedMPH,PrecipitationIn,Events,Conditions,WindDirDegrees,DateUTC
12:53 AM,48.9,46.0,90,30.10,10.0,Calm,Calm,-,N/A,,Clear,0,2012-10-27 04:53:00
1:53 AM,46.9,44.1,90,30.09,4.0,Calm,Calm,-,N/A,,Clear,0,2012-10-27 05:53:00
2:40 AM,46.4,44.6,93,30.09,2.5,Calm,Calm,-,N/A,,Clear,0,2012-10-27 06:40:00
2:53 AM,46.9,44.1,90,30.08,10.0,Calm,Calm,-,N/A,,Clear,0,2012-10-27 06:53:00
3:53 AM,46.0,44.1,93,30.06,7.0,Calm,Calm,-,N/A,,Clear,0,2012-10-27 07:53:00
4:53 AM,46.0,44.1,93,30.06,6.0,Calm,Calm,-,N/A,,Clear,0,2012-10-27 08:53:00
5:53 AM,44.1,42.1,93,30.05,7.0,Calm,Calm,-,N/A,,Partly Cloudy,0,2012-10-27 09:53:00
6:53 AM,43.0,41.0,93,30.05,5.0,Calm,Calm,-,N/A,,Partly Cloudy,0,2012-10-27 10:53:00
7:53 AM,46.0,43.0,89,30.06,5.0,Calm,Calm,-,N/A,,Clear,0,2012-10-27 11:53:00
8:32 AM,50.0,46.4,87,30.08,8.0,Calm,Calm,-,N/A,,Scattered Clouds,0,2012-10-27 12:32:00
8:43 AM,50.0,46.4,87,30.09,8.0,Calm,Calm,-,N/A,,Mostly Cloudy,0,2012-10-27 12:43:00
8:48 AM,51.8,48.2,88,30.09,1.0,Calm,Calm,-,N/A,,Mostly Cloudy,0,2012-10-27 12:48:00
8:53 AM,51.1,48.0,89,30.09,1.0,Calm,Calm,-,N/A,,Overcast,0,2012-10-27 12:53:00
9:00 AM,51.8,48.2,88,30.10,0.8,Calm,Calm,-,N/A,,Overcast,0,2012-10-27 13:00:00
9:25 AM,53.6,50.0,88,30.09,2.0,Calm,Calm,-,N/A,,Mostly Cloudy,0,2012-10-27 13:25:00
9:32 AM,53.6,50.0,88,30.09,6.0,East,4.6,-,N/A,,Scattered Clouds,80,2012-10-27 13:32:00
9:53 AM,55.0,50.0,83,30.08,6.0,ENE,4.6,-,N/A,,Clear,60,2012-10-27 13:53:00
10:53 AM,60.1,51.1,72,30.06,10.0,Calm,Calm,-,N/A,,Clear,0,2012-10-27 14:53:00
11:53 AM,64.0,53.1,67,30.04,10.0,NE,4.6,-,N/A,,Clear,40,2012-10-27 15:53:00
12:53 PM,64.9,53.1,65,30.02,10.0,NE,4.6,-,N/A,,Clear,50,2012-10-27 16:53:00
1:53 PM,63.0,53.1,70,30.01,10.0,NE,6.9,-,N/A,,Clear,40,2012-10-27 17:53:00
2:53 PM,62.1,53.1,72,30.00,10.0,NE,6.9,-,N/A,,Clear,50,2012-10-27 18:53:00
3:53 PM,61.0,53.1,75,30.01,10.0,NE,6.9,-,N/A,,Partly Cloudy,50,2012-10-27 19:53:00
4:53 PM,57.9,52.0,81,30.01,10.0,NE,5.8,-,N/A,,Overcast,50,2012-10-27 20:53:00
5:53 PM,55.9,52.0,87,30.02,10.0,NE,5.8,-,N/A,,Clear,40,2012-10-27 21:53:00
6:53 PM,54.0,51.1,90,30.02,10.0,NE,3.5,-,N/A,,Overcast,40,2012-10-27 22:53:00
7:16 PM,53.6,51.8,94,30.04,10.0,NE,3.5,-,N/A,,Overcast,40,2012-10-27 23:16:00
7:53 PM,53.1,51.1,93,30.04,10.0,NNE,4.6,-,N/A,,Scattered Clouds,30,2012-10-27 23:53:00
8:03 PM,53.6,51.8,94,30.04,3.0,NNE,3.5,-,N/A,,Mostly Cloudy,30,2012-10-28 00:03:00
8:53 PM,53.1,51.1,93,30.03,10.0,NNE,4.6,-,N/A,,Mostly Cloudy,20,2012-10-28 00:53:00
9:53 PM,53.1,50.0,89,30.02,10.0,NNE,4.6,-,N/A,,Mostly Cloudy,30,2012-10-28 01:53:00
10:53 PM,54.0,51.1,90,30.02,10.0,NNE,5.8,-,N/A,,Unknown,30,2012-10-28 02:53:00
11:19 PM,53.6,51.8,94,30.03,10.0,NNE,6.9,-,N/A,,Overcast,20,2012-10-28 03:19:00
11:34 PM,53.6,51.8,94,30.02,10.0,NNE,6.9,-,N/A,,Mostly Cloudy,20,2012-10-28 03:34:00
11:53 PM,53.1,51.1,93,30.01,10.0,NNE,5.8,-,N/A,,Mostly Cloudy,20,2012-10-28 03:53:00